Brownsville, TX

12:20 PM CDT on May 27, 2017 (GMT -0500)
Brownsville-South Padre I International

Weather History for KBRO - March, 2013

Change the Weather History Date:

Tuesday, March 12, 2013

  Actual Average Record
Temperature  
Mean Temperature 63 °F 68 °F  
Max Temperature 79 °F 78 °F 99 °F (1954)
Min Temperature 46 °F 59 °F 33 °F (1948)
Degree Days  
Heating Degree Days 2 2  
Month to date heating degree days 22 24  
Since 1 July heating degree days 315 527  
Cooling Degree Days 0 5  
Month to date cooling degree days 37 55  
Year to date cooling degree days 258 196  
Growing Degree Days 12 (Base 50)    
Moisture  
Dew Point 43 °F    
Average Humidity 59    
Maximum Humidity 93    
Minimum Humidity 25    
Precipitation  
Precipitation 0.00 in 0.04 in 4.79 in (2007)
Month to date precipitation 0.26 0.43  
Year to date precipitation 1.74 2.78  
Sea Level Pressure  
Sea Level Pressure 30.14 in    
Wind  
Wind Speed 5 mph (SE)    
Max Wind Speed 17 mph    
Max Gust Speed 22 mph    
Visibility 10 miles    
Events      
T = Trace of Precipitation, MM = Missing Value Source: NWS Daily Summary

Daily Weather History Graph

Daily Weather History Graph

Search for Another Location

Airport or City:

Trip Planner

Search our weather history database for the weather conditions in past years. The results will help you decide how hot, cold, wet, or windy it might be!

Date:

Astronomy

Mar. 12, 2013 Rise Set
Actual Time 7:41 AM CDT 7:37 PM CDT
Civil Twilight 7:18 AM CDT 8:00 PM CDT
Nautical Twilight 6:52 AM CDT 8:26 PM CDT
Astronomical Twilight 6:25 AM CDT 8:53 PM CDT
Moon 7:58 AM CDT (3/12) 8:41 PM CDT (3/12)
Length of Visible Light 12h 41m
Length of Day
11h 55m
New Moon, 1% of the Moon is Illuminated
Mar 12
New Moon
Mar 19
First Quarter
Mar 27
Full
Apr 2
Last Quarter
Apr 10
New

Hourly Weather History & Observations

Time (CDT) Temp. Dew Point Humidity Pressure Visibility Wind Dir Wind Speed Gust Speed Precip Events Conditions
12:53 AM 51.1 °F 42.1 °F 71% 30.12 in 10.0 mi Calm Calm - N/A   Clear
1:53 AM 51.1 °F 42.1 °F 71% 30.12 in 10.0 mi Calm Calm - N/A   Clear
2:53 AM 48.9 °F 41.0 °F 74% 30.12 in 10.0 mi Calm Calm - N/A   Clear
3:53 AM 48.0 °F 41.0 °F 77% 30.10 in 10.0 mi Calm Calm - N/A   Clear
4:53 AM 48.0 °F 41.0 °F 77% 30.10 in 10.0 mi SSW 3.5 mph - N/A   Clear
5:53 AM 48.9 °F 41.0 °F 74% 30.11 in 10.0 mi SSW 3.5 mph - N/A   Clear
6:53 AM 48.0 °F 41.0 °F 77% 30.12 in 10.0 mi SW 3.5 mph - N/A   Clear
7:53 AM 48.0 °F 43.0 °F 83% 30.14 in 10.0 mi Calm Calm - N/A   Clear
8:53 AM 54.0 °F 51.1 °F 90% 30.16 in 10.0 mi Calm Calm - N/A   Clear
9:53 AM 64.9 °F 48.0 °F 54% 30.17 in 10.0 mi Calm Calm - N/A   Clear
10:53 AM 71.1 °F 41.0 °F 34% 30.18 in 10.0 mi SSE 8.1 mph - N/A   Clear
11:53 AM 73.0 °F 39.0 °F 29% 30.17 in 10.0 mi Calm Calm - N/A   Clear
12:53 PM 75.9 °F 37.0 °F 24% 30.17 in 10.0 mi Variable 5.8 mph - 0.00 in   Clear
1:53 PM 77.0 °F 39.0 °F 25% 30.14 in 10.0 mi Variable 4.6 mph - N/A   Clear
2:53 PM 78.1 °F 42.1 °F 28% 30.12 in 10.0 mi SE 10.4 mph 17.3 mph N/A   Clear
3:53 PM 77.0 °F 41.0 °F 28% 30.10 in 10.0 mi ESE 11.5 mph - N/A   Clear
4:53 PM 75.9 °F 41.0 °F 29% 30.09 in 10.0 mi East 10.4 mph - N/A   Clear
5:53 PM 72.0 °F 44.1 °F 37% 30.10 in 10.0 mi ESE 12.7 mph 20.7 mph N/A   Clear
6:53 PM 69.1 °F 46.9 °F 45% 30.13 in 10.0 mi ESE 12.7 mph - N/A   Clear
7:53 PM 64.9 °F 48.9 °F 56% 30.15 in 10.0 mi ESE 6.9 mph - N/A   Clear
8:53 PM 61.0 °F 48.9 °F 64% 30.17 in 10.0 mi East 4.6 mph - N/A   Clear
9:53 PM 60.1 °F 48.9 °F 67% 30.19 in 10.0 mi ESE 5.8 mph - N/A   Clear
10:53 PM 57.9 °F 48.9 °F 72% 30.22 in 10.0 mi East 5.8 mph - N/A   Clear
11:53 PM 57.9 °F 50.0 °F 75% 30.22 in 10.0 mi ENE 5.8 mph - N/A   Clear